Showing default

EUROBIRD 4A(EUTELSAT W1), 26487

Orbit data source: Space-Track

EUROBIRD 4A(EUTELSAT W1), 26487 is a payload satellite owned by Eutelsat (FR) in GEO that was launched on Wed, 06 Sep 2000 UTC via an ARIANE 44P launch vehicle from the French Guiana (FRGUI). Payloads include a variety of satellites, spacecraft, and rockets equipped with specific instruments for various scientific and technological missions. These include communications satellites like Starlink; space stations such as the ISS; scientific satellites like the Hubble; Earth observation satellites from companies like Planet Labs, Umbra, and HawkEye 360; GPS; miniature CubeSats for education and research; and military/defense satellites.

Loading next visibility...
EUROBIRD 4A(EUTELSAT W1) details
Identifier
26487, 2000-052A
Orbit
GEO
Last TLE update9 hours ago
Origin
Flag of FREutelsat (FR / EUTE)
ManufacturerAstrium/Toulouse
MissionNon-operational Civil Communications
Bus & MotorEUROSTAR 2000+, R-4D-11-300
Mass3,250 kg wet, 1,430 kg dry
Launch date (UTC)
2000-09-06 (24 years ago)
Launch vehicle
ARIANE 44P
Launch site
French Guiana (FRGUI)
Object type
Payload
Rocket body
Debris
Shape & HBRBox + 2 Pan, Unknown HBR
Radar Cross Section35.202 m², Large (>1 m²)

Expand to show TLE details & history

TLE from 9 hours ago
0 EUROBIRD 4A(EUTELSAT W1)
1 26487U 00052A   24361.15421782 -.00000008  00000-0  00000-0 0  9999
2 26487  10.1941  50.7095 0012793 254.6678 114.9022  0.98178930 87909
Epoch: 2024-12-26T03:42Z
Definitive object data (Epoch: 2024-12-26T03:42:04.419Z)
Latitude1.72162°
Longitude-90.39959°
Altitude36,406.377 km
Speed3.052 km/s
True Right ascension04h 01m 01s
True Declination1° 43' 12"
Sunlit
Object was in daylight at TLE epoch
Visualization TLE readout
Latitude5.23066°
Longitude49.48427°
Altitude36,397.202 km
Speed3.052 km/s
Apparent Right ascension13h 26m 44s
Apparent Declination0° 15' 55"
Sunlit
Object is in daylight
Visualization observer readout
Local Sidereal Time12:32:27
Azimuth159.487° S
Elevation47.952°
Doppler factor1
Orbital elements
Apogee altitude36,439.41 km
Perigee altitude36,329.997 km
Semi-major axis42,762.841 km
Eccentricity0.0012793
Inclination10.1941°
RAAN50.7095°
Arg. of periapsis254.6678°
True anomaly115.03508°
Mean anomaly114.9022°
Eccentric anomaly114.96865°
Mean motion0.24544 °/min
BSTARUnknown
Orbital period1466.76 mins
Loading historical data...
26487 neighbors
Authenticating...
Loading maneuver chart data...
Loading historical data...
Loading historical data...
Loading historical data...
Loading historical data...
Loading historical data...
Loading historical data...
Loading historical data...
Other satellites on launch #52 in the year 2000 (2000-09-06 UTC)

EUROBIRD 4A(EUTELSAT W1) Visibility forecast

Observer location: undefined°, undefined

Span
Click to sort rows by Start time (UTC) header in descending order
Start Az.
Max El. time (UTC)
Max El. Az.
Max El.
End time (UTC)
End Az.
1440 mins2024-12-26 13:10:49.106Z159.496° S2024-12-27 09:38:49.106Z169.533° S39.338°2024-12-27 13:10:49.106Z171.911° S
|